Home   Weather   Tegucigalpa   Past weeks
Flag for Honduras

Past Weather in Tegucigalpa, Honduras — Yesterday and Last 2 Weeks

Now
68 °F

Partly cloudy.


Feels Like: 68 °F
Forecast: 81 / 63 °F
Wind: 5 mph from North

Location: Tegucigalpa Airport

Current Time: May 21, 2019 at 4:51:42 am

Latest Report: May 21, 2019 at 4:00 am


Visibility: N/A

Pressure: 29.98 "Hg (26.51 "Hg at 1054m altitude)

Humidity: 83%

Dew Point: 63 °F

Location of TegucigalpaLocation

Past Weather in Tegucigalpa — Graph

°F

Tegucigalpa Temperature Yesterday

Maximum temperature yesterday: 84 °F (at 1:00 pm)
Minimum temperature yesterday: 64 °F (at 5:00 am)
Average temperature yesterday: 74 °F

High & Low Weather Summary for the Past Weeks

 TemperatureHumidityPressure
High93 °F (May 9, 2:00 pm)100% (May 10, 10:00 pm)30.12 "Hg (May 10, 10:00 pm)
Low59 °F (May 8, 6:00 am)31% (May 8, 4:00 pm)29.89 "Hg (May 9, 3:00 pm)
Average74 °F73%30.02 "Hg
* Reported May 6 3:00 am — May 21 3:00 am, Tegucigalpa. Weather by CustomWeather, © 2019

Note: Actual official high and low records may vary slightly from our data, if they occured in-between our weather recording intervals... More about our weather records

Advertising

Tegucigalpa Weather History for the Previous 24 Hours

Scroll right to see more
 ConditionsComfort  
Time TempWeatherWind HumidityBarometerVisibility
3:00 am
Tue, May 21
68 °FPartly cloudy.No wind83%29.98 "HgN/A
2:00 am68 °FPassing clouds.No wind78%30.01 "HgN/A
1:00 am68 °FPassing clouds.2 mph78%30.01 "HgN/A
12:00 am68 °FPartly cloudy.No wind78%30.04 "HgN/A
11:00 pm
Mon, May 20
70 °FPassing clouds.No wind73%30.04 "HgN/A
10:00 pm72 °FPassing clouds.5 mph69%30.04 "HgN/A
9:00 pm73 °FThunderstorms. Passing clouds.6 mph65%30.04 "HgN/A
8:00 pm73 °FThunderstorms. Passing clouds.6 mph65%30.01 "HgN/A
7:00 pm75 °FScattered showers. Passing clouds.9 mph61%29.98 "Hg5 mi
6:00 pm81 °FScattered clouds.5 mph45%29.95 "HgN/A
5:00 pm84 °FScattered clouds.9 mph37%29.92 "HgN/A
4:00 pm81 °FPartly sunny.No wind48%29.92 "HgN/A
3:00 pm84 °FScattered clouds.7 mph37%29.95 "HgN/A
2:00 pm82 °FScattered clouds.7 mph42%29.98 "HgN/A
1:00 pm84 °FScattered clouds.7 mph40%30.01 "HgN/A
12:00 pm81 °FBroken clouds.12 mph51%30.04 "HgN/A
11:00 am79 °FScattered clouds.7 mph48%30.04 "HgN/A
10:00 am77 °FScattered clouds.7 mph51%30.07 "HgN/A
9:00 am73 °FPartly sunny.No wind65%30.07 "HgN/A
8:00 am70 °FPartly sunny.No wind78%30.07 "HgN/A
7:00 am68 °FPartly sunny.3 mph88%30.04 "HgN/A
6:00 am64 °FBroken clouds.No wind94%30.04 "HgN/A
5:00 am64 °FPartly cloudy.No wind94%30.01 "HgN/A
4:00 am66 °FPartly cloudy.No wind88%30.01 "HgN/A
Weather by CustomWeather, © 2019

See weather overview